Location: ???????
(37.9035°N, 23.9899°E)
Time: 05:24:25
(UTC+00:00)

Daily predictions for brighter satellites

Satellite Brightness Start Highest point End
(mag) Time Altitude Azimuth Time Altitude Azimuth Time Altitude Azimuth
Meteor 1-24 Rocket 4.5 02:45:24 47° ESE 02:45:24 47° ESE 02:50:00 10° SSE
Cosmos 1461 4.4 02:59:06 40° ENE 02:59:06 40° ENE 03:02:34 10° NE
Cosmos 1763 Rocket 4.0 03:00:33 53° ESE 03:00:56 54° ESE 03:06:01 10° NNE
H-2A R/B 4.2 03:02:09 40° SW 03:06:24 60° S 08:30:39 10° SE
CZ-4B R/B 4.2 03:03:58 10° SE 03:04:48 16° SE 03:04:48 16° SE
CZ-2C R/B 3.4 03:08:14 22° SE 03:08:14 22° SE 03:10:48 10° ESE
Atlas Centaur 2 3.9 03:06:04 30° SSW 03:08:52 39° SSE 03:16:32 10° E
FALCON 9 R/B 3.2 03:09:57 31° SSW 03:09:57 31° SSW 03:13:04 10° SE
Cosmos 1844 Rocket 4.1 03:12:57 25° S 03:12:57 25° S 03:15:18 10° S
Cosmos 921 Rocket 4.4 03:16:30 31° NNE 03:16:30 31° NNE 03:18:47 10° NNE
Cosmos 2278 Rocket 3.8 03:14:43 11° N 03:19:28 31° ENE 03:24:27 10° ESE
COSMO-SKYMED 1 3.5 03:16:12 10° SE 03:20:20 46° ENE 03:22:20 27° NNE
Cosmos 1464 Rocket 4.3 03:17:30 10° S 03:23:32 65° E 03:29:37 10° NNE
SJ 16-02 2.6 03:25:48 31° S 03:25:48 31° S 03:28:08 10° S
Cosmos 2237 Rocket 3.1 03:21:10 10° S 03:26:33 48° ESE 03:32:00 10° NE
CZ-4B R/B 3.6 03:25:16 10° NNE 03:28:46 46° E 03:32:20 10° S
Cosmos 2333 Rocket 3.2 03:32:04 31° NNW 03:32:04 31° NNW 03:35:25 10° N
Cosmos 2219 Rocket 2.9 03:33:24 36° NNW 03:33:24 36° NNW 03:37:09 10° N
Cosmos 468 Rocket 3.9 03:34:09 64° W 03:34:30 66° WNW 03:39:46 10° NNE
Lacrosse 4 Rocket 4.4 03:33:30 10° SSE 03:36:17 18° ESE 03:39:08 10° ENE
Lacrosse 5 rocket 3.7 03:36:15 12° NNE 03:37:19 13° NNE 03:39:09 10° ENE
Cosmos 1544 Rocket 4.2 03:33:23 10° S 03:37:36 54° E 03:41:49 10° NNE
H-2A R/B 3.5 03:39:30 10° NNE 03:43:07 51° E 03:46:45 10° S
SKYMED 3 4.5 03:39:56 10° SSE 03:44:16 88° ENE 03:46:36 27° NNW
Cosmos 1937 Rocket 4.1 03:40:30 11° N 03:45:33 56° ENE 03:50:40 10° SSE
GEOS 3 Rocket 4.2 03:41:16 10° SE 03:46:30 58° NE 03:50:25 18° NNW
COSMOS 2428 3.1 03:50:01 39° WNW 03:50:01 39° WNW 03:55:19 10° N
Okean 1-7 Rocket 3.7 03:46:31 10° N 03:51:04 76° E 03:55:32 10° S
Envisat 3.9 03:46:48 10° NNE 03:51:44 50° E 03:56:38 10° S
Cosmos 1400 Rocket 4.4 03:48:50 10° SSE 03:52:34 37° E 03:56:22 10° NNE
GPS 2-04 Rocket1 3.7 03:54:54 33° SW 03:55:30 35° SSW 03:59:18 10° SE
SL-4 R/B 3.3 03:54:28 10° SSW 03:57:47 35° SE 04:01:26 10° ENE
FALCON 9 DEB 3.4 03:58:13 50° NNW 03:58:13 50° NNW 04:01:13 10° NE
Cosmos 1980 3.6 03:53:38 10° SSW 03:59:17 82° WNW 04:04:59 10° NNE
Cosmos 2034 Rocket 4.0 03:54:28 10° S 04:00:51 89° WNW 04:07:15 10° N
Cosmos 1455 Rocket 3.3 04:00:18 10° SSW 04:04:27 43° W 04:08:37 10° N
YAOGAN 6 3.0 04:03:20 10° NNE 04:07:01 67° E 04:10:41 10° S
SKYMED 2 3.8 04:04:08 10° S 04:08:19 47° W 04:10:54 21° NW
Nadezhda 4 Rocket 3.9 04:06:42 10° N 04:12:51 89° W 04:18:58 10° S
Cosmos 44 Rocket 3.7 04:08:18 13° NNW 04:12:59 68° ENE 04:18:08 10° SE
Cosmos 540 Rocket 3.4 04:10:35 10° SSW 04:15:35 57° WNW 04:20:38 10° N
ATLAS CENTAUR R/B 2.5 04:12:45 10° S 04:16:15 39° ESE 04:19:42 10° NE
MOS 1 Rocket 3.4 04:11:39 10° S 04:16:43 62° W 04:21:30 10° NNW
SJ-7 4.3 04:12:53 10° N 04:17:03 82° WNW 04:21:08 10° SSW
H-2A R/B 3.9 04:14:00 10° NNE 04:18:17 44° E 04:22:35 10° S
Chandra Rocket (1) 3.6 04:17:03 12° SW 04:19:34 19° SSW 04:21:40 10° SE
Cosmos 1953 2.5 04:16:41 10° SSW 04:20:31 45° W 04:24:21 10° N
ATLAS 5 CENTAUR R/B 1.6 04:19:14 27° NW 04:20:38 90° ENE 04:26:58 10° SE
ERS-2 2.5 04:17:52 10° S 04:21:19 40° W 04:23:29 20° NW
Cosmos 990 Rocket 4.5 04:19:24 18° NW 04:22:37 37° W 04:27:18 10° SSW
deb Chang Zheng 4 4.3 04:19:26 10° N 04:23:08 30° WNW 04:26:48 10° SW
Meteor PRIRODA 4.3 04:22:08 10° N 04:25:20 30° WNW 04:28:31 10° SW
Cosmos 1908 3.1 04:23:17 10° SSW 04:27:02 59° W 04:30:48 10° N
Okean O Rocket 3.3 04:23:18 10° NNE 04:27:20 36° E 04:31:19 10° SSE
Meteor 2-13 Rocket 4.4 04:22:08 10° NNW 04:28:15 66° W 04:34:18 10° S
Meteor 1-16 Rocket 4.3 04:22:41 10° SSW 04:28:30 66° W 04:34:24 10° N
USA 276 4.0 04:28:18 16° WSW 04:28:40 16° SW 04:30:42 10° S
OAO 2 Rocket 3.5 04:28:31 17° W 04:32:12 62° S 04:37:04 10° ESE
USA 307 3.6 04:28:32 10° SSW 04:32:40 57° SE 04:36:48 10° NE
PSLV R/B 4.3 04:31:55 10° S 04:35:47 42° W 04:39:43 10° NNW
SMAP 3.5 04:32:02 10° NNE 04:36:41 68° ESE 04:41:18 10° S
Cosmos 1461 4.5 04:35:33 17° WNW 04:37:21 21° NW 04:40:58 10° N
Cosmos 1689 Rocket 2.8 04:35:05 10° SSW 04:37:44 32° W 04:39:51 14° NW
Spot 2 3.8 04:34:27 10° NNE 04:38:30 85° WNW 04:42:34 10° SSW
SL-8 R/B 3.9 04:34:40 15° NW 04:38:39 68° NNE 04:43:27 10° ESE
CZ-4B R/B 3.7 04:37:47 10° WSW 04:37:54 10° WSW 04:37:54 10° WSW
Cosmos 1602 Rocket 3.5 04:35:54 10° N 04:40:23 81° W 04:44:51 10° S
Cosmos 1315 Rocket 4.2 04:36:57 10° SSE 04:40:39 42° E 04:44:22 10° NNE
USA 308 3.2 04:37:10 10° SW 04:41:21 68° SE 04:45:33 10° NE
USA 305 3.1 04:37:45 10° SW 04:41:59 74° SE 04:46:13 10° NE
CENTAUR R/B 3.4 04:38:36 10° S 04:43:59 52° ESE 04:50:20 10° NE
CZ-2C R/B 1.9 04:42:54 10° WSW 04:46:53 49° S 04:50:37 10° E
Cosmos 841 Rocket 4.2 04:44:18 10° SW 04:48:48 30° WNW 04:53:19 10° N
Cosmos 2026 Rocket 4.2 04:43:35 10° N 04:49:58 84° E 04:56:21 10° S
CZ-3 Stage 3 2.4 04:50:14 10° SW 04:51:58 16° SSW 04:53:12 10° SSE
USA 306 2.9 04:49:32 10° SW 04:53:48 88° NW 04:58:04 10° NE
Meteor 1-11 4.4 04:48:17 10° N 04:53:53 81° E 04:59:27 10° S
COSMO-SKYMED 1 4.3 04:54:30 10° WSW 04:56:43 14° W 04:58:56 10° WNW
USA 238 DEB 3.7 04:50:25 10° SSW 04:56:55 87° SE 05:03:45 10° NNE
USA 238 3.7 04:50:33 10° SSW 04:57:03 86° ESE 05:03:52 10° NNE
SL-16 R/B 2.2 04:52:10 10° SSW 04:57:48 83° WNW 05:03:30 10° NNE
Cosmos 1825 Rocket 4.3 04:53:31 10° N 04:57:56 59° E 05:02:20 10° SSE
Cosmos 2369 Rocket 4.5 04:54:08 10° N 04:58:06 19° NE 05:02:04 10° E
Atlas Centaur 2 3.8 04:50:17 10° WSW 04:58:09 51° S 05:06:18 10° ESE
Cosmos 1340 3.2 04:58:59 10° NNW 05:02:27 35° W 05:05:53 10° SSW
Cosmos 2098 Rocket 3.7 04:56:45 10° N 05:02:53 84° E 05:07:42 10° S
Cosmos 2278 Rocket 2.9 04:58:26 10° NW 05:03:30 34° WSW 05:08:32 10° SSW
CZ-4B R/B 3.3 04:57:52 10° NNE 05:03:34 87° WNW 05:09:08 10° SSW
Cosmos 2298 Rocket 4.2 04:58:31 10° NNW 05:03:53 81° ENE 05:09:12 10° SSE
Cosmos 1703 4.1 05:01:39 10° NNW 05:05:06 30° W 05:08:32 10° SSW
CZ-2C R/B 2.6 05:04:19 10° S 05:09:27 67° WSW 05:14:44 10° NNW
PAYLOAD B 4.4 05:05:06 10° N 05:10:31 53° WNW 05:15:56 10° SSW
Cosmos 2237 Rocket 3.3 05:06:23 10° WSW 05:10:51 23° NW 05:15:21 10° N
Cosmos 1943 Rocket 3.5 05:06:02 10° N 05:11:23 41° ENE 05:16:42 10° SE
